Regional Weather Roundup
Issued by NWS Raleigh/Durham, NC

Home | Current Version | Previous Version | Text Only | Print | Product List | Glossary On
Versions: 1 2 3 4 5 6 7 8 9 10 11 12 13 14 15 16 17 18 19 20 21 22 23 24 25 26 27 28 29 30 31 32 33 34 35 36 37 38 39 40 41 42 43 44 45 46 47 48 49 50
000
ASUS42 KRAH 201210
RWRRAH
NORTH CAROLINA WEATHER ROUNDUP
NATIONAL WEATHER SERVICE RALEIGH NC
800 AM EDT SUN AUG 20 2017

NOTE: "FAIR" INDICATES FEW OR NO CLOUDS BELOW 12,000 FEET WITH NO
SIGNIFICANT WEATHER AND/OR OBSTRUCTIONS TO VISIBILITY.

NCZ001-053-055-056-065-067-201300-
WESTERN NORTH CAROLINA

CITY           SKY/WX    TMP DP  RH WIND       PRES   REMARKS
ASHEVILLE      SUNNY     65  62  90 CALM      30.18R
JEFFERSON      FOG       59  58  99 CALM      30.23R VSB 3/4
MORGANTON      SUNNY     65  65 100 CALM      30.16R FOG
HICKORY        SUNNY     69  68  96 CALM      30.12R
RUTHERFORDTON  SUNNY     69  68  96 CALM      30.12R
MOUNT AIRY     SUNNY     69  65  85 CALM      30.15R
BOONE          SUNNY     57  57 100 CALM      30.23S FOG
$$

NCZ021-022-025-041-071-084-088-201300-
CENTRAL NORTH CAROLINA

CITY           SKY/WX    TMP DP  RH WIND       PRES   REMARKS
CHARLOTTE      MOSUNNY   75  72  90 N5        30.10R
GREENSBORO     MOSUNNY   73  69  87 CALM      30.11R
WINSTON-SALEM  SUNNY     72  68  87 CALM      30.12R
RALEIGH-DURHAM MOSUNNY   75  72  90 CALM      30.09R
FORT BRAGG     MOSUNNY   74  73  98 CALM      30.06R
FAYETTEVILLE   MOSUNNY   74  74 100 CALM      30.06R
BURLINGTON     SUNNY     74  70  87 CALM      30.10R
LAURINBURG     SUNNY     76  76 100 E3        30.07R FOG
$$

NCZ011-015-027-028-043-044-047-080-103-201300-
NORTHEASTERN NORTH CAROLINA

CITY           SKY/WX    TMP DP  RH WIND       PRES   REMARKS
ROCKY MT-WILSO FOG       73  73 100 CALM      30.08R VSB 1
GREENVILLE     SUNNY     73  73 100 CALM      30.08R
WASHINGTON     MOSUNNY   73  73  98 CALM      30.08R
ELIZABETH CITY MOSUNNY   77  77 100 CALM      30.07R
MANTEO         CLOUDY    77  75  94 CALM      30.07R
CAPE HATTERAS  CLOUDY    77  76  96 W5        30.08R
$$

NCZ078-087-090-091-093-098-101-201300-
SOUTHEASTERN NORTH CAROLINA

CITY           SKY/WX    TMP DP  RH WIND       PRES   REMARKS
LUMBERTON      FOG       75  75 100 CALM      30.06R VSB 1/4
GOLDSBORO      SUNNY     76  76 100 VRB2      30.06R
KENANSVILLE    FOG       73  73 100 CALM      30.08R VSB 1/4
NEW BERN       CLOUDY    76  76 100 CALM      30.08R FOG
CHERRY POINT   FOG       77  76  96 N5        30.08R VSB 1/4
BEAUFORT       CLOUDY    77  77 100 E9        30.07S
JACKSONVILLE   FOG       77  77 100 N3        30.06R VSB 3/4
WILMINGTON     CLOUDY    76  75  97 CALM      30.05R
$$




USA.gov is the U.S. government's official web portal to all federal, state and local government web resources and services.